Regional Weather Roundup
Issued by NWS

Home | Current Version | Previous Version | Text Only | Print | Product List | Glossary On
Versions: 1 2 3 4 5 6 7 8 9 10 11 12 13 14 15 16 17 18 19 20 21 22 23 24 25 26 27 28 29 30 31 32 33 34 35 36 37 38 39 40 41 42 43 44 45 46 47 48 49 50
000
ASUS44 KOUN 311010
RWROK

WEATHER ROUNDUP FOR OKLAHOMA
NATIONAL WEATHER SERVICE NORMAN OK
400 AM CST SAT JAN 31 2015

NOTE: "FAIR" INDICATES FEW OR NO CLOUDS BELOW 12,000 FEET WITH NO
      SIGNIFICANT WEATHER AND/OR OBSTRUCTIONS TO VISIBILITY.

OKZ001>007-009>012-014-015-017-311100-
NORTHWEST OKLAHOMA AND THE PANHANDLE

CITY           SKY/WX    TMP DP  RH WIND       PRES   REMARKS
GAGE           LGT RAIN  36  34  92 S5        30.16F FOG     WCI  32
ENID/WOODRING  CLOUDY    41  30  65 S3        30.21F
$$

OKZ016-021>023-033>039-044-045-311100-
SOUTHWEST OKLAHOMA

CITY           SKY/WX    TMP DP  RH WIND       PRES   REMARKS
LAWTON/REGL    CLOUDY    45  32  60 E5        30.21F
LAWTON/FT SILL CLOUDY    44  32  61 SE7       30.19F
FREDERICK      LGT RAIN  43  35  73 E8        30.16F
CLINTON        LGT RAIN  40  33  76 SE8       30.18F WCI  34
HOBART         LGT RAIN  42  34  73 SE13      30.17F
ALTUS AFB      CLOUDY    45  33  62 SE10      30.17F
$$

OKZ018>020-024>031-311100-
CENTRAL OKLAHOMA

CITY           SKY/WX    TMP DP  RH WIND       PRES   REMARKS
OKLAHOMA CITY  CLOUDY    42  29  59 SE7       30.22F
OKC/WILEY POST CLOUDY    44  29  55 S5        30.23F
OKC/TINKER AFB CLOUDY    42  30  62 S8        30.23S
STILLWATER     CLOUDY    43  27  53 S7        30.23F
GUTHRIE        CLOUDY    43  27  53 S5        30.23F
$$

OKZ008-013-054>072-311100-
NORTHEAST OKLAHOMA

CITY           SKY/WX    TMP DP  RH WIND       PRES   REMARKS
TULSA          CLOUDY    43  26  51 SE5       30.25F
TULSA/JONES    CLOUDY    44  27  51 CALM      30.26F
PONCA CITY     CLOUDY    43  24  47 S5        30.23F
BARTLESVILLE   CLOUDY    41  27  57 CALM      30.26F
MUSKOGEE       CLOUDY    43  27  53 SE9       30.28F
$$

OKZ032-040>043-046>053-073>077-311100-
SOUTH CENTRAL/SOUTHEAST OKLAHOMA

CITY           SKY/WX    TMP DP  RH WIND       PRES   REMARKS
ARDMORE/DWNTWN MOCLDY    45  30  57 SE3       30.23F
MCALESTER      CLOUDY    46  29  51 SE6       30.25F
$$



USA.gov is the U.S. government's official web portal to all federal, state and local government web resources and services.